Terug naar catalogus

AC1-003

ActiefCommunicatieSSO
NORAD 66689·PAYLOAD·🇬🇧 United Kingdom

Gelanceerd Nov 28, 2025 vanaf Vandenberg Space Force Base

Loading…

Volgende Passages (komende 24 uur)

TLE

VersSource: Space-Track

Epoch: Sep 14, 2026, 03:42 UTC

1 66689U 25276Z   26257.15430979  .00001624  00000-0  81887-4 0  9996
2 66689  97.4131 328.7427 0004274  73.1879 286.9824 15.18547379 43902

Volg AC1-003 in realtime met AllMySat

Download on the App Store